Columbia Falls, MT

6:02 AM MDT on August 27, 2016 (GMT -0600)
Glacier Park International

Weather History for KGPI - August, 2012

Change the Weather History Date:

Wednesday, August 15, 2012

  Actual Average Record
Temperature  
Mean Temperature 59 °F 65 °F  
Max Temperature 72 °F 82 °F 97 °F (2003)
Min Temperature 45 °F 47 °F 37 °F (1960)
Degree Days  
Heating Degree Days 6 3  
Month to date heating degree days 18 32  
Since 1 June heating degree days 307 325  
Since 1 July heating degree days 58 109  
Cooling Degree Days 0 2  
Month to date cooling degree days 40 41  
Year to date cooling degree days 174 124  
Since 1 June cooling degree days 174 121  
Growing Degree Days 10 (Base 50)    
Moisture  
Dew Point 44 °F    
Average Humidity 62    
Maximum Humidity 89    
Minimum Humidity 34    
Precipitation  
Precipitation 0.02 in 0.03 in 0.53 in (1978)
Month to date precipitation 0.25 0.44  
Year to date precipitation 14.46 11.06  
Snow  
Snow 0.00 in - - ()
Month to date snowfall 0.0  
Year to date snowfall 25.1  
Since 1 July snowfall 0.0  
Snow Depth 0.00 in    
Sea Level Pressure  
Sea Level Pressure 30.12 in    
Wind  
Wind Speed 6 mph (NNE)    
Max Wind Speed 21 mph    
Max Gust Speed 28 mph    
Visibility 10 miles    
Events Rain    
T = Trace of Precipitation, MM = Missing Value Source: NWS Daily Summary

Daily Weather History Graph

Daily Weather History Graph

Search for Another Location

Airport or City:

Trip Planner

Search our weather history database for the weather conditions in past years. The results will help you decide how hot, cold, wet, or windy it might be!

Date:

Astronomy

Aug. 15, 2012 Rise Set
Actual Time 6:31 AM MDT 8:49 PM MDT
Civil Twilight 5:57 AM MDT 9:24 PM MDT
Nautical Twilight 5:14 AM MDT 10:06 PM MDT
Astronomical Twilight 4:25 AM MDT 10:55 PM MDT
Moon 4:28 AM MDT (8/15) 7:27 PM MDT (8/15)
Length of Visible Light 15h 26m
Length of Day
14h 18m
Waning Crescent, 4% of the Moon is Illuminated
Aug 15
Waning Crescent
Aug 17
New
Aug 24
First Quarter
Aug 31
Full
Sep 8
Last Quarter

Hourly Weather History & Observations

Time (MDT) Temp. Dew Point Humidity Pressure Visibility Wind Dir Wind Speed Gust Speed Precip Events Conditions
12:55 AM 55.0 °F 48.9 °F 80% 29.99 in 9.0 mi North 16.1 mph - 0.01 in Rain Light Rain
2:55 AM 55.0 °F 48.9 °F 80% 30.05 in 10.0 mi North 9.2 mph - 0.02 in Rain Light Rain
3:55 AM 55.0 °F 48.0 °F 77% 30.04 in 10.0 mi North 10.4 mph - 0.00 in Rain Light Rain
4:55 AM 55.9 °F 46.9 °F 72% 30.06 in 10.0 mi North 11.5 mph - 0.00 in   Mostly Cloudy
5:55 AM 51.1 °F 48.9 °F 92% 30.10 in 10.0 mi Calm Calm - N/A   Clear
6:55 AM 50.0 °F 46.9 °F 89% 30.14 in 10.0 mi Calm Calm - N/A   Clear
7:55 AM 55.0 °F 46.9 °F 74% 30.14 in 10.0 mi NNE 4.6 mph - N/A   Clear
8:55 AM 61.0 °F 48.0 °F 62% 30.14 in 10.0 mi NE 11.5 mph - N/A   Clear
9:55 AM 62.1 °F 45.0 °F 53% 30.17 in 10.0 mi ENE 11.5 mph - N/A   Clear
10:55 AM 64.9 °F 45.0 °F 48% 30.18 in 10.0 mi East 12.7 mph 16.1 mph N/A   Mostly Cloudy
11:55 AM 63.0 °F 42.1 °F 46% 30.19 in 10.0 mi East 8.1 mph - N/A   Mostly Cloudy
12:55 PM 64.9 °F 41.0 °F 42% 30.19 in 10.0 mi ESE 3.5 mph - N/A   Overcast
1:55 PM 66.9 °F 41.0 °F 39% 30.17 in 10.0 mi Variable 4.6 mph - N/A   Overcast
3:55 PM 69.1 °F 42.1 °F 38% 30.14 in 10.0 mi Variable 5.8 mph 17.3 mph N/A   Mostly Cloudy
4:55 PM 71.1 °F 42.1 °F 35% 30.12 in 10.0 mi NNE 9.2 mph - N/A   Clear
5:55 PM 71.1 °F 41.0 °F 34% 30.12 in 10.0 mi North 9.2 mph - N/A   Clear
6:55 PM 70.0 °F 41.0 °F 35% 30.11 in 10.0 mi NNE 11.5 mph - N/A   Clear
7:55 PM 66.9 °F 41.0 °F 39% 30.11 in 10.0 mi NNE 9.2 mph - N/A   Clear
8:55 PM 62.1 °F 42.1 °F 48% 30.12 in 10.0 mi East 3.5 mph - N/A   Clear
9:55 PM 52.0 °F 44.1 °F 74% 30.15 in 10.0 mi NNW 3.5 mph - N/A   Clear
10:55 PM 50.0 °F 43.0 °F 77% 30.15 in 10.0 mi Calm Calm - N/A   Clear
11:55 PM 50.0 °F 42.1 °F 74% 30.16 in 10.0 mi NW 3.5 mph - N/A   Clear